Location: Bruch
(44.2051°N, 0.4120°E)
Time: 18:16:28
(UTC+00:00)

Nadezhda 3 Rocket - Pass Details

Date: 29 November 2020
Orbit: 956 x 1000 km, 82.9° (Epoch: 22 January)

Event Time Altitude Azimuth Distance (km) Brightness Sun altitude
Rises 06:27:07 0° 346° (NNW) 3,713 6.7 -8.0°
Reaches altitude 10° 06:29:46 10° 340° (NNW) 2,754 6.0 -7.6°
Maximum altitude 06:35:40 44° 271° (W) 1,331 4.4 -6.6°
Drops below altitude 10° 06:41:29 10° 201° (SSW) 2,707 6.4 -5.7°
Sets 06:44:05 0° 195° (SSW) 3,643 7.1 -5.2°
